Location: Roswell
(33.3940°N, 104.5230°W)
Time: 00:27:30
(UTC-06:00)

Hubble Space Telescope - Visible Passes

Search period start: 26 October 2021 00:00
Search period end: 05 November 2021 00:00
Orbit: 535 x 539 km, 28.5° (Epoch: 25 October)

Date Brightness Start Highest point End Pass type
(mag) Time Alt. Az. Time Alt. Az. Time Alt. Az.
26 Oct 3.0 19:25:15 10° S 19:26:51 12° SSE 19:27:30 12° SSE visible
27 Oct 2.8 19:13:19 10° SSW 19:15:39 15° SSE 19:17:10 13° SE visible
28 Oct 2.7 19:01:40 10° SSW 19:04:28 18° SSE 19:06:47 12° ESE visible
28 Oct 3.6 20:41:24 10° WSW 20:42:05 14° SW 20:42:05 14° SW visible
29 Oct 2.5 18:50:10 10° SSW 18:53:18 21° SSE 18:56:22 10° ESE visible
29 Oct 3.1 20:30:13 10° WSW 20:31:40 20° SW 20:31:40 20° SW visible
30 Oct 2.3 18:38:46 10° SW 18:42:08 25° SSE 18:45:30 10° ESE visible
30 Oct 2.6 20:19:03 10° WSW 20:21:13 26° SW 20:21:13 26° SW visible
31 Oct 2.2 18:27:25 10° SW 18:30:59 28° SSE 18:34:31 10° ESE visible
31 Oct 2.1 20:07:55 10° WSW 20:10:45 34° SW 20:10:45 34° SW visible
01 Nov 1.7 19:56:47 10° WSW 20:00:17 40° SSW 20:00:17 40° SSW visible
02 Nov 1.5 19:45:40 10° WSW 19:49:32 40° S 19:49:50 40° S visible
03 Nov 1.7 19:34:34 10° WSW 19:38:24 38° S 19:39:24 32° SSE visible
04 Nov 1.9 19:23:29 10° WSW 19:27:15 35° S 19:29:01 24° SE visible
